sat.trackr.live / text

‹ back to catalog

STARLINK-33766

NORAD 63472 · 2025-070N

PAYLOAD ACTIVE UNKNOWN

§ Identity

Operator
Country
US
Launch date
2025-04-06
Launch site
AFETR
Launch vehicle
Mass (kg)
RCS (m²)

Purposes: comms

External: N2YO · Heavens-Above · Gunter

§ Orbital elements

Epoch: 2026-05-25T03:13:43.303008Z

Period
94.27 min
Inclination
42.9990°
Eccentricity
0.0001444
Mean motion
15.27592432 rev/d
Perigee alt
482.0 km
Apogee alt
484.0 km
Semi-major
6,861.1 km
B*
3.5567e-4
RAAN
188.4283°
Arg perigee
276.3126°
Mean anomaly
83.7561°
Rev number
6,466

§ Raw data

STARLINK-337661 63472U 25070N   26145.13452897  .00009542  00000+0  35567-3 0  99912 63472  42.9990 188.4283 0001444 276.3126  83.7561 15.27592432 64663

JSON: /api/v1/satellites/63472 · /tle

For live sub-satellite position, see the globe view (requires WebGL).

§ Visibility from observer

Set your observer location to see the next 7 days of passes ≥ 10°. The values pass through the URL so the page stays shareable.

No JS? Fill the form by hand. The geolocation button needs JavaScript.